Overview Statistics Trail Chart Weather Telemetry Raw packets
 

This is the latest recevied weather packets stored in our database for station/object EA4BHK-10. If no packets are shown the sender has not sent any weather packets the latest 10 day(s).

<< 25 26 27 28 29 30 31 >>
Time Temp. Humidity Pressure Rain* Wind** Luminosity Snow
1787982793 9.44° C 57% 1025.1 hPa - - - -
1787981893 8.89° C 57% 1025 hPa - - - -
1787980993 9.44° C 57% 1025 hPa - - - -
1787980093 9.44° C 56% 1024.7 hPa - - - -
1787979193 9.44° C 56% 1024.7 hPa - - - -
1787978293 10° C 55% 1024.7 hPa - - - -
1787977393 10° C 54% 1024.6 hPa - - - -
1787976493 10° C 54% 1024.3 hPa - - - -
1787975593 10° C 53% 1024.3 hPa - - - -
1787974693 10.56° C 52% 1024.2 hPa - - - -
1787973793 10.56° C 51% 1024.1 hPa - - - -
1787972893 11.11° C 50% 1023.8 hPa - - - -
1787971993 11.11° C 51% 1023.7 hPa - - - -
1787971079 11.11° C 50% 1023.7 hPa - - - -
1787970179 11.67° C 50% 1023.6 hPa - - - -
1787969279 11.67° C 47% 1023.3 hPa - - - -
1787968379 12.22° C 47% 1023.2 hPa - - - -
1787967479 12.22° C 47% 1023.4 hPa - - - -
1787966579 12.22° C 47% 1023.5 hPa - - - -
1787965679 12.22° C 47% 1023.5 hPa - - - -
1787964779 12.22° C 45% 1023.4 hPa - - - -
1787963879 12.78° C 44% 1023.4 hPa - - - -
1787962979 12.78° C 45% 1023.5 hPa - - - -
1787962079 12.78° C 44% 1023.6 hPa - - - -
1787961178 13.33° C 44% 1023.7 hPa - - - -

* Rain since midnight (hover to see other rain measurements)
** Current wind speed in m/s (hover to see current wind gust speed)